This is the latest recevied weather packets stored in our database for station/object VE3TEJ. If no packets are shown the sender has not sent any weather packets the latest 10 day(s).
| Time | Temp. | Humidity | Pressure | Rain* | Wind** | Luminosity | Snow |
|---|---|---|---|---|---|---|---|
| 1777943647 | 15.56° C | 69% | 999.7 hPa | 0 mm | - | - | - |
| 1777943349 | 15.56° C | 69% | 999.7 hPa | 0 mm | - | - | - |
| 1777943048 | 15.56° C | 68% | 999.9 hPa | 0 mm | - | - | - |
| 1777942748 | 15.56° C | 67% | 999.8 hPa | 0 mm | - | - | - |
| 1777942447 | 16.11° C | 66% | 999.7 hPa | 0 mm | - | - | - |
| 1777942147 | 16.11° C | 65% | 999.6 hPa | 0 mm | - | - | - |
| 1777941849 | 16.67° C | 64% | 999.6 hPa | 0 mm | - | - | - |
| 1777941548 | 16.67° C | 63% | 999.6 hPa | 0 mm | - | - | - |
| 1777941248 | 17.22° C | 62% | 999.7 hPa | 0 mm | - | - | - |
| 1777940949 | 17.78° C | 62% | 999.7 hPa | 0 mm | - | - | - |
| 1777940648 | 17.78° C | 62% | 999.9 hPa | 0 mm | - | - | - |
| 1777940348 | 17.78° C | 61% | 1000 hPa | 0 mm | - | - | - |
| 1777940047 | 18.33° C | 60% | 999.8 hPa | 0 mm | - | - | - |
| 1777939749 | 18.33° C | 59% | 999.8 hPa | 0 mm | - | - | - |
| 1777939449 | 18.33° C | 58% | 999.8 hPa | 0 mm | - | - | - |
| 1777939148 | 18.89° C | 57% | 1000 hPa | 0 mm | - | - | - |
| 1777938848 | 18.89° C | 57% | 999.9 hPa | 0 mm | - | - | - |
| 1777938547 | 18.89° C | 56% | 999.9 hPa | 0 mm | - | - | - |
| 1777938249 | 19.44° C | 56% | 999.8 hPa | 0 mm | - | - | - |
| 1777937948 | 19.44° C | 55% | 999.7 hPa | 0 mm | - | - | - |
| 1777937648 | 20° C | 54% | 999.8 hPa | 0 mm | - | - | - |
| 1777937348 | 20° C | 53% | 999.9 hPa | 0 mm | - | - | - |
| 1777937047 | 20° C | 52% | 999.8 hPa | 0 mm | - | - | - |
| 1777936747 | 20° C | 52% | 1000.1 hPa | 0 mm | - | - | - |
| 1777936449 | 20.56° C | 52% | 1000 hPa | 0 mm | - | - | - |
* Rain latest hour (hover to see other rain measurements)
** Current wind speed in m/s (hover to see current wind gust speed)